Flag for Portugal Weather past 2 weeks in Guimarães, Portugal

Now
54 °F

Cool.


Feels Like: 54 °F
Forecast: 46 / 55 °F
Wind: 3 mph from Southwest

Location: Porto / Pedras Rubras

Current Time: Jan 29, 2015 at 11:12:13 AM

Latest Report: Jan 29, 2015 at 10:00 AM


Visibility: N/A

Pressure: 30.18 "Hg

Humidity: 93%

Dew point: 52 °F

Location of GuimarãesLocation

Historic Weather in Guimarães — Graph

°F

Guimarães temperature yesterday

Maximum temperature yesterday: 56 °F (at 2:00 PM)
Minimum temperature yesterday: 38 °F (at 5:00 AM)
Average temperature yesterday: 48 °F

Past Weeks' High & Low Weather Summary

 TemperatureHumidityPressure
High59 °F (Jan 25, 1:00 PM)94% (Jan 14, 9:00 AM)30.50 "Hg (Jan 14, 9:00 AM)
Low37 °F (Jan 17, 4:00 AM)50% (Jan 27, 12:00 PM)29.80 "Hg (Jan 15, 3:00 PM)
Average48 °F78%30.21 "Hg
* Reported Jan 14 9:00 AM — Jan 29 9:00 AM, Guimarães, Weather by CustomWeather, © 2014

Note: Actual official high and low records may vary slightly from our data, if they occured in-between our weather recording intervals... More about our weather records

Advertising

Guimarães weather history for previous 24 hours

 ConditionsComfort  
Time TempWeatherWind HumidityBarometerVisibility
9:00 AM
Jan 29
54 °FCool.1 mph93%30.19 "HgN/A
8:00 AM53 °FCool.2 mph93%30.20 "HgN/A
7:00 AM53 °FCool.1 mph92%30.19 "HgN/A
6:00 AM53 °FCool.1 mph92%30.21 "HgN/A
5:00 AM53 °FCool.3 mph93%30.22 "HgN/A
4:00 AM54 °FCool.3 mph93%30.24 "HgN/A
3:00 AM53 °FCool.3 mph93%30.26 "HgN/A
2:00 AM53 °FCool.2 mph93%30.28 "HgN/A
1:00 AM54 °FCool.2 mph92%30.29 "HgN/A
12:00 AM53 °FCool.2 mph93%30.31 "HgN/A
11:00 PM
Jan 28
52 °FCool.1 mph92%30.31 "HgN/A
10:00 PM51 °FCool.1 mph91%30.33 "HgN/A
9:00 PM51 °FCool.No wind89%30.35 "HgN/A
8:00 PM50 °FCool.No wind89%30.36 "HgN/A
7:00 PM51 °FCool.2 mph88%30.37 "HgN/A
6:00 PM52 °FCool.3 mph84%30.36 "HgN/A
5:00 PM53 °FCool.7 mph82%30.35 "HgN/A
4:00 PM54 °FCool.7 mph77%30.35 "HgN/A
3:00 PM55 °FCool.6 mph72%30.36 "HgN/A
2:00 PM56 °FCool.8 mph70%30.38 "HgN/A
1:00 PM55 °FCool.7 mph66%30.41 "HgN/A
12:00 PM54 °FCool.5 mph63%30.43 "HgN/A
11:00 AM50 °FCool.2 mph64%30.43 "HgN/A
Weather by CustomWeather, © 2014

See weather overviewHow to use our weather pages